Regional Weather Roundup
Issued by NWS

Home | Current Version | Previous Version | Text Only | Print | Product List | Glossary On
Versions: 1 2 3 4 5 6 7 8 9 10 11 12 13 14 15 16 17 18 19 20 21 22 23 24 25 26 27 28 29 30 31 32 33 34 35 36 37 38 39 40 41 42 43 44 45 46 47 48 49 50
000
ASUS44 KOUN 012010
RWROK

WEATHER ROUNDUP FOR OKLAHOMA
NATIONAL WEATHER SERVICE NORMAN OK
200 PM CST SUN FEB 01 2015

NOTE: "FAIR" INDICATES FEW OR NO CLOUDS BELOW 12,000 FEET WITH NO
      SIGNIFICANT WEATHER AND/OR OBSTRUCTIONS TO VISIBILITY.

OKZ001>007-009>012-014-015-017-012100-
NORTHWEST OKLAHOMA AND THE PANHANDLE

CITY           SKY/WX    TMP DP  RH WIND       PRES   REMARKS
GAGE           SUNNY     35  14  42 N37G52    30.15F WCI  21
ENID/WOODRING  MOSUNNY   36  25  64 NW32G40   30.10R WCI  22
$$

OKZ016-021>023-033>039-044-045-012100-
SOUTHWEST OKLAHOMA

CITY           SKY/WX    TMP DP  RH WIND       PRES   REMARKS
LAWTON/REGL    PTSUNNY   41  25  53 NW17G28   30.12R
LAWTON/FT SILL CLOUDY    42  27  55 N14G30    30.10S
CLINTON        SUNNY     41  22  46 N32G46    30.12F
HOBART         MOSUNNY   43  24  47 N33G40    30.13S
ALTUS AFB      MOSUNNY   45  25  45 N22G32    30.13F
$$

OKZ018>020-024>031-012100-
CENTRAL OKLAHOMA

CITY           SKY/WX    TMP DP  RH WIND       PRES   REMARKS
OKLAHOMA CITY  PTSUNNY   39  23  52 N31G43    30.07R WCI  27
OKC/WILEY POST MOSUNNY   38  23  55 N26G41    30.09S WCI  26
OKC/TINKER AFB MOSUNNY   37  24  58 NW23G33   30.05R WCI  26
STILLWATER     CLOUDY    34  21  59 NW26G38   30.09R WCI  21
GUTHRIE        CLOUDY    35  22  58 NW16G26   30.11R WCI  25
$$

OKZ008-013-054>072-012100-
NORTHEAST OKLAHOMA

CITY           SKY/WX    TMP DP  RH WIND       PRES   REMARKS
TULSA          CLOUDY    34  22  61 NW26G37   30.02R WCI  21
TULSA/JONES    PTSUNNY   35  24  64 NW13G24   30.04R WCI  26
PONCA CITY     CLOUDY    32  19  58 NW25G37   30.09R WCI  19
BARTLESVILLE   CLOUDY    30  21  69 MISG      30.06R
MUSKOGEE       FLURRIES  39  28  64 NW28G36   30.00R WCI  28
$$

OKZ032-040>043-046>053-073>077-012100-
SOUTH CENTRAL/SOUTHEAST OKLAHOMA

CITY           SKY/WX    TMP DP  RH WIND       PRES   REMARKS
ARDMORE/DWNTWN CLOUDY    41  30  65 N10G21    30.07S
MCALESTER      PTSUNNY   42  30  62 NW20G28   30.01R
$$



USA.gov is the U.S. government's official web portal to all federal, state and local government web resources and services.